CW1662 Weather Reports


Display with metric or nautical units.
time (UTC)temp
F
wind
direction
speed
MPH
gust
MPH
rain 1hr
in
rain 24hr
in
rain mn
in
humidity
%
barometer
mb
20260504192340 78 255 3.0 10.0 0.00 0.00 0.00 42 1007.9
20260504191904 77 206 4.0 10.0 0.00 0.00 0.00 42 1008.0
20260504191327 77 192 5.0 11.0 0.00 0.00 0.00 39 1008.1
20260504190830 76 181 5.0 13.0 0.00 0.00 0.00 38 1008.0
20260504190338 76 194 6.0 13.0 0.00 0.00 0.00 41 1008.2
20260504185842 76 209 3.0 12.0 0.00 0.00 0.00 40 1008.3
20260504185346 76 207 5.0 13.0 0.00 0.00 0.00 43 1008.2
20260504184828 75 201 9.0 13.0 0.00 0.00 0.00 40 1008.5
20260504184336 75 192 7.0 13.0 0.00 0.00 0.00 43 1008.7
20260504183901 76 216 3.0 15.0 0.00 0.00 0.00 40 1008.7
20260504183324 76 225 8.0 15.0 0.00 0.00 0.00 39 1008.7
20260504182351 76 176 6.0 11.0 0.00 0.00 0.00 41 1008.9
20260504181838 76 186 5.0 7.0 0.00 0.00 0.00 43 1009.0
20260504181327 76 243 3.0 6.0 0.00 0.00 0.00 42 1009.1
20260504180831 75 269 1.0 12.0 0.00 0.00 0.00 44 1009.2
20260504180336 75 182 4.0 15.0 0.00 0.00 0.00 41 1009.4
20260504175840 75 189 10.0 15.0 0.00 0.00 0.00 41 1009.3
20260504175404 74 202 6.0 13.0 0.00 0.00 0.00 42 1009.5
20260504174827 75 203 5.0 10.0 0.00 0.00 0.00 43 1009.5
20260504174332 74 195 4.0 11.0 0.00 0.00 0.00 45 1009.4
20260504173837 75 206 3.0 12.0 0.00 0.00 0.00 45 1009.5
20260504173341 74 203 6.0 12.0 0.00 0.00 0.00 42 1009.8
20260504172826 74 196 3.0 11.0 0.00 0.00 0.00 43 1009.7
20260504172329 74 200 6.0 11.0 0.00 0.00 0.00 42 1009.7
20260504171837 74 185 8.0 11.0 0.00 0.00 0.00 41 1009.8
20260504171324 74 98 3.0 6.0 0.00 0.00 0.00 42 1009.8
20260504170852 74 266 3.0 12.0 0.00 0.00 0.00 44 1010.1
20260504170335 73 190 6.0 13.0 0.00 0.00 0.00 40 1010.2
20260504160334 71 181 6.0 12.0 0.00 0.00 0.00 42 1010.9
20260504150847 69 221 6.0 12.0 0.00 0.00 0.00 45 1011.6
20260504150333 68 175 3.0 7.0 0.00 0.00 0.00 47 1011.6
20260504140843 65 191 2.0 11.0 0.00 0.00 0.00 49 1012.0
20260504140331 65 192 7.0 11.0 0.00 0.00 0.00 44 1012.0
20260504130336 59 198 5.0 12.0 0.00 0.00 0.00 53 1012.2
20260504110325 49 226 1.0 2.0 0.00 0.00 0.00 67 1012.7
20260504100341 47 195 0.0 0.0 0.00 0.00 0.00 70 1012.7
20260504081829 49 195 0.0 0.0 0.00 0.00 0.00 63 1013.1
20260504081334 49 195 0.0 1.0 0.00 0.00 0.00 61 1013.2
20260504080838 49 195 0.0 1.0 0.00 0.00 0.00 61 1013.1
20260504080327 49 195 0.0 2.0 0.00 0.00 0.00 61 1013.1
20260504070336 46 98 0.0 0.0 0.00 0.00 0.00 67 1013.3
20260504050330 48 98 1.0 3.0 0.00 0.00 0.00 64 1013.6
20260504045835 48 180 1.0 2.0 0.00 0.00 0.00 64 1013.5
20260504045338 48 180 1.0 2.0 0.00 0.00 0.00 64 1013.5
20260504044843 48 287 1.0 2.0 0.00 0.00 0.00 63 1013.6
20260504044348 48 287 1.0 2.0 0.00 0.00 0.00 63 1013.7
20260504043831 48 287 1.0 2.0 0.00 0.00 0.00 62 1013.7
20260504043336 48 287 1.0 2.0 0.00 0.00 0.00 63 1013.6
20260504042840 48 287 2.0 2.0 0.00 0.00 0.00 63 1013.6
20260504042323 48 287 0.0 0.0 0.00 0.00 0.00 62 1013.4
20260504041830 48 287 0.0 0.0 0.00 0.00 0.00 61 1013.4
20260504041335 48 287 0.0 0.0 0.00 0.00 0.00 61 1013.4
20260504040843 48 287 0.0 0.0 0.00 0.00 0.00 61 1013.5
20260504040328 48 287 0.0 0.0 0.00 0.00 0.00 61 1013.5
20260504035832 48 287 0.0 0.0 0.00 0.00 0.00 61 1013.5
20260504035335 48 287 0.0 0.0 0.00 0.00 0.00 62 1013.4
20260504034840 48 287 0.0 0.0 0.00 0.00 0.00 63 1013.4
20260504034324 48 287 0.0 0.0 0.00 0.00 0.00 62 1013.4
20260504033829 48 287 0.0 0.0 0.00 0.00 0.00 62 1013.4
20260504033337 49 287 0.0 0.0 0.00 0.00 0.00 61 1013.4
20260504032841 49 287 0.0 0.0 0.00 0.00 0.00 61 1013.5
20260504032325 49 287 0.0 0.0 0.00 0.00 0.00 61 1013.5
20260504031833 49 287 0.0 0.0 0.00 0.00 0.00 60 1013.6
20260504031338 49 287 0.0 0.0 0.00 0.00 0.00 59 1013.5
20260504030843 49 287 0.0 0.0 0.00 0.00 0.00 60 1013.5
20260504030327 49 287 0.0 0.0 0.00 0.00 0.00 60 1013.5
20260504025832 49 287 0.0 0.0 0.00 0.00 0.00 60 1013.3
20260504025335 49 287 0.0 0.0 0.00 0.00 0.00 60 1013.3
20260504024843 49 287 0.0 0.0 0.00 0.00 0.00 60 1013.3
20260504024327 50 287 0.0 0.0 0.00 0.00 0.00 59 1013.3
20260504023852 50 287 0.0 0.0 0.00 0.00 0.00 59 1013.2
20260504023335 50 287 0.0 0.0 0.00 0.00 0.00 59 1013.2
20260504022840 50 287 0.0 0.0 0.00 0.00 0.00 58 1013.1
20260504022329 50 287 0.0 0.0 0.00 0.00 0.00 58 1013.1
20260504021836 50 287 0.0 0.0 0.00 0.00 0.00 58 1013.1
20260504021403 50 287 0.0 0.0 0.00 0.00 0.00 57 1013.1
20260504020827 51 287 0.0 0.0 0.00 0.00 0.00 56 1013.0
20260504020331 51 287 0.0 0.0 0.00 0.00 0.00 55 1013.1
20260504015837 52 287 0.0 0.0 0.00 0.00 0.00 55 1013.0
20260504015324 52 287 0.0 0.0 0.00 0.00 0.00 54 1012.8
20260504014829 51 287 0.0 0.0 0.00 0.00 0.00 54 1012.8
20260504014333 51 287 0.0 0.0 0.00 0.00 0.00 54 1012.8
20260504013838 51 287 0.0 0.0 0.00 0.00 0.00 53 1012.9
20260504013342 52 287 0.0 0.0 0.00 0.00 0.00 53 1012.9
20260504012831 52 287 0.0 0.0 0.00 0.00 0.00 53 1012.7
20260504012354 52 287 0.0 0.0 0.00 0.00 0.00 53 1012.7
20260504011838 52 287 0.0 1.0 0.00 0.00 0.00 54 1012.6
20260504011343 52 287 0.0 1.0 0.00 0.00 0.00 53 1012.6
20260504010827 53 287 1.0 2.0 0.00 0.00 0.00 52 1012.6
20260504010332 53 287 1.0 2.0 0.00 0.00 0.00 52 1012.6
20260504005836 53 287 0.0 1.0 0.00 0.00 0.00 51 1012.6
20260504005340 53 287 0.0 2.0 0.00 0.00 0.00 50 1012.6
20260504004904 54 287 0.0 2.0 0.00 0.00 0.00 49 1012.6
20260504004348 54 287 0.0 1.0 0.00 0.00 0.00 48 1012.6
20260504003830 54 287 0.0 1.0 0.00 0.00 0.00 47 1012.6
20260504003337 55 287 0.0 1.0 0.00 0.00 0.00 46 1012.5
20260504002823 55 287 1.0 1.0 0.00 0.00 0.00 47 1012.4
20260504002333 55 287 0.0 1.0 0.00 0.00 0.00 47 1012.3
20260504001841 56 287 0.0 1.0 0.00 0.00 0.00 45 1012.3
20260504001325 57 287 0.0 1.0 0.00 0.00 0.00 44 1012.4
20260504000830 57 287 0.0 2.0 0.00 0.00 0.00 43 1012.3
20260504000334 58 287 0.0 3.0 0.00 0.00 0.00 43 1012.2
20260503235859 59 287 1.0 3.0 0.00 0.00 0.00 42 1012.2
20260503235342 59 287 1.0 3.0 0.00 0.00 0.00 42 1012.2
20260503234826 60 273 2.0 4.0 0.00 0.00 0.00 39 1012.2
20260503234334 60 273 3.0 10.0 0.00 0.00 0.00 39 1012.2
20260503233838 60 292 2.0 10.0 0.00 0.00 0.00 40 1012.2
20260503233343 60 290 2.0 4.0 0.00 0.00 0.00 41 1012.1
20260503232832 61 287 3.0 4.0 0.00 0.00 0.00 39 1012.0
20260503232334 61 283 2.0 6.0 0.00 0.00 0.00 39 1012.0
20260503231840 61 284 3.0 5.0 0.00 0.00 0.00 38 1011.9
20260503231327 62 270 3.0 9.0 0.00 0.00 0.00 38 1012.0
20260503230835 62 290 5.0 8.0 0.00 0.00 0.00 35 1011.9
20260503230340 63 306 4.0 12.0 0.00 0.00 0.00 37 1012.0
20260503225844 63 300 6.0 12.0 0.00 0.00 0.00 35 1011.8
20260503225327 63 315 4.0 13.0 0.00 0.00 0.00 38 1011.7
20260503224832 63 279 8.0 12.0 0.00 0.00 0.00 35 1011.8
20260503224337 63 265 6.0 14.0 0.00 0.00 0.00 33 1011.8
20260503223825 63 275 5.0 14.0 0.00 0.00 0.00 37 1011.8
20260503223330 64 346 5.0 10.0 0.00 0.00 0.00 34 1011.9
20260503222837 63 333 3.0 10.0 0.00 0.00 0.00 35 1011.9
20260503222341 63 336 6.0 10.0 0.00 0.00 0.00 37 1012.0
20260503221825 64 325 6.0 12.0 0.00 0.00 0.00 35 1011.9
20260503221330 64 336 7.0 15.0 0.00 0.00 0.00 36 1012.0
20260503220834 64 309 5.0 15.0 0.00 0.00 0.00 35 1011.9
20260503220342 63 319 8.0 10.0 0.00 0.00 0.00 38 1012.0
20260503215827 64 285 4.0 9.0 0.00 0.00 0.00 36 1012.1
20260503215330 64 293 5.0 10.0 0.00 0.00 0.00 34 1012.0
20260503214835 64 311 6.0 10.0 0.00 0.00 0.00 34 1012.1
20260503214322 64 279 4.0 10.0 0.00 0.00 0.00 35 1012.1
20260503213830 64 311 3.0 12.0 0.00 0.00 0.00 34 1012.0
20260503213335 64 317 8.0 12.0 0.00 0.00 0.00 33 1012.2
20260503212859 64 275 6.0 12.0 0.00 0.00 0.00 33 1012.2
20260503212342 64 299 8.0 12.0 0.00 0.00 0.00 36 1012.0
20260503211826 64 342 4.0 10.0 0.00 0.00 0.00 35 1012.1
20260503211331 63 329 5.0 10.0 0.00 0.00 0.00 40 1012.2
20260503210835 63 316 5.0 14.0 0.00 0.00 0.00 33 1012.2
20260503210340 63 342 3.0 14.0 0.00 0.00 0.00 36 1012.2
20260503205845 64 302 7.0 12.0 0.00 0.00 0.00 36 1012.1
20260503205328 63 300 9.0 17.0 0.00 0.00 0.00 36 1012.1
20260503204837 64 326 4.0 17.0 0.00 0.00 0.00 36 1012.2
20260503204401 64 331 9.0 15.0 0.00 0.00 0.00 38 1012.2
20260503203828 64 287 6.0 15.0 0.00 0.00 0.00 35 1012.3
20260503203351 64 281 10.0 15.0 0.00 0.00 0.00 36 1012.3
20260503202838 64 278 9.0 12.0 0.00 0.00 0.00 35 1012.2
20260503202341 63 259 7.0 12.0 0.00 0.00 0.00 36 1012.4
20260503201826 63 325 8.0 16.0 0.00 0.00 0.00 37 1012.5
20260503201349 62 277 12.0 16.0 0.00 0.00 0.00 35 1012.5
20260503200837 63 274 9.0 12.0 0.00 0.00 0.00 37 1012.6
20260503200341 61 307 5.0 11.0 0.00 0.00 0.00 38 1012.6
20260503195825 61 355 5.0 14.0 0.00 0.00 0.00 37 1012.7
20260503195329 62 286 7.0 14.0 0.00 0.00 0.00 36 1012.9
20260503194853 62 316 7.0 16.0 0.00 0.00 0.00 37 1012.9
20260503194337 63 259 10.0 16.0 0.00 0.00 0.00 36 1012.8
20260503193826 63 304 8.0 19.0 0.00 0.00 0.00 35 1012.9
20260503193330 63 287 7.0 19.0 0.00 0.00 0.00 34 1012.9
20260503192855 63 290 6.0 13.0 0.00 0.00 0.00 36 1013.0